User: anonymous   Login
Location: South Tamworth Observatory
(43.8246°N, 71.3026°W)
Time: 04:55:08
(UTC-04:00)
Language:

Cosmos 1844 - Orbit

View from above orbital plane
View from above orbital plane
View from above satellite
View from above satellite

Ground track
Ground track

The orbit data is extracted from the following two-line orbital elements,

1 17973U 87041A   18112.04977251 -.00000134  00000-0 -44870-4 0  9992
2 17973  70.8977 342.6244 0030045  18.7400 341.4820 14.14063586596802
Epoch (UTC): 22 April 2018 01:11:40
Eccentricity: 0.0030045
inclination: 70.8977°
perigee height: 824 km
apogee height: 867 km
right ascension of ascending node: 342.6244°
argument of perigee: 18.7400°
revolutions per day: 14.14063586
mean anomaly at epoch: 341.4820°
orbit number at epoch: 59680

The dashed part of the orbit path shows where the satellite is in the earth's shadow,  

DLR